#timestamp,LO_Frequency,Hit,StdDev 
1560319215.8,286047000.6,P
1560319235.7,286047001.2,N
1560319255.5,286046998.2,N
1560319275.4,286046999.3,N
1560319295.2,286046999.6,N
1560319315.0,286046996.7,N
1560319315.9,286046996.7,N
1560319335.8,286046996.8,N
1560319355.6,286046996.7,N
1560319375.4,286046997.8,N
1560319395.3,286046997.9,N
1560319415.1,286046997.7,N
1560319435.9,286046995.4,N
1560319455.7,286046993.3,N
1560319475.5,286046993.9,N
1560319495.4,286046993.9,N
1560319515.2,286046993.5,N
1560319535.0,286046996.3,N
1560319535.9,286046996.3,N
1560319555.8,286046996.4,N
1560319575.6,286046993.7,N
1560319595.4,286046994.6,N
1560319615.3,286046994.4,N
1560319635.6,286046993.4,N
1560319655.4,286046993.9,N
1560319675.3,286046994.5,N
1560319695.1,286046992.1,N
1560319715.8,286046994.4,N
1560319735.7,286046993.0,N
1560319755.5,286046990.1,Y
1560319775.4,286046995.3,P
1560319795.2,286046995.2,P
1560319815.0,286047011.9,P
1560319815.9,286046995.5,N
1560319835.8,286046993.4,N
1560319855.6,286046993.8,N
1560319875.5,286046994.1,N
1560319895.3,286046993.5,N
1560319915.1,286046996.2,N
1560319935.9,286046996.0,N
1560319955.7,286046995.7,N
1560319975.5,286046995.6,N
1560319995.4,286046995.2,N
1560320015.2,286046995.0,N
1560320035.0,286046997.7,N
1560320035.9,286046997.7,N
1560320055.8,286046998.0,N
1560320075.6,286046995.2,N
1560320095.5,286046997.3,N
1560320115.3,286046997.4,N
1560320135.1,286046997.7,N
1560320155.9,286046995.0,N
1560320175.7,286046997.5,N
1560320195.5,286046999.1,N
1560320215.4,286046997.3,N
1560320235.2,286046996.5,N
1560320255.1,286046997.6,N
1560320256.0,286046997.6,N
1560320275.8,286046995.1,N
1560320295.6,286046997.9,N
1560320315.5,286046993.9,N
1560320335.3,286046993.8,N
1560320355.1,286046994.0,N
1560320375.9,286046993.7,Y
1560320395.7,286046998.8,P
1560320415.6,286047001.2,N
1560320435.4,286046998.9,N
1560320455.2,286046998.2,N
1560320475.1,286046999.3,N
1560320476.0,286046999.3,N
1560320495.8,286046999.0,N
1560320515.6,286046997.8,N
1560320535.5,286046996.7,N
1560320555.3,286046999.1,N
1560320575.2,286047000.5,N
1560320595.9,286047000.4,N
1560320615.7,286046998.1,N
1560320635.6,286046999.9,N
1560320655.4,286047000.8,N
1560320675.2,286046998.9,N
1560320695.4,286046999.0,N
1560320715.2,286046996.5,N
1560320735.0,286046996.8,N
1560320736.0,286046996.8,N
1560320755.8,286046999.3,N
1560320775.6,286046998.6,N
1560320795.5,286046999.1,N
1560320815.3,286046999.1,N
1560320835.1,286047002.3,N
1560320855.9,286046998.5,N
1560320875.7,286046998.8,N
1560320895.6,286046998.6,N
1560320915.4,286046998.4,N
1560320935.2,286046998.5,N
1560320955.1,286047001.0,N
1560320956.0,286047001.0,N
1560320975.8,286046998.5,N
1560320995.6,286046999.0,N
1560321015.5,286046998.5,N
1560321035.3,286046998.6,N
1560321055.2,286046998.2,N
1560321075.9,286046998.1,N
1560321095.7,286046999.3,N
1560321115.6,286046999.5,N
1560321135.4,286046999.6,N
1560321155.2,286046997.0,N
1560321175.1,286046998.4,N
1560321176.0,286046998.4,N
1560321195.8,286046999.3,N
1560321215.7,286046998.5,N
1560321235.5,286046998.4,N
1560321255.3,286046998.3,N
1560321275.2,286047000.3,N
1560321295.0,286047002.3,N
1560321295.9,286047002.3,N
1560321315.8,286047002.5,N
1560321335.6,286047002.3,N
1560321355.4,286047001.9,N
1560321375.3,286047000.0,N
1560321395.1,286047002.1,N
1560321415.8,286047001.2,N
1560321435.7,286047002.6,N
1560321455.5,286047002.6,N
1560321475.4,286047002.2,N
1560321495.2,286047002.4,N
1560321515.0,286046998.2,N
1560321515.9,286046998.2,N
1560321535.8,286047002.8,N
1560321555.6,286047000.5,N
1560321575.5,286046998.5,N
1560321595.3,286047000.7,N
1560321615.1,286047002.3,N
1560321635.9,286047002.7,N
1560321655.7,286047000.0,N
1560321675.6,286046998.3,N
1560321695.4,286047000.8,N
1560321715.2,286046999.8,N
1560321735.1,286047000.0,N
1560321736.0,286047000.0,N
1560321755.8,286047001.2,N
1560321775.6,286046998.3,N
1560321795.5,286046998.9,N
1560321815.3,286046998.4,N
1560321835.2,286046998.3,N
1560321855.9,286047000.3,N
1560321875.7,286047001.9,N
1560321895.6,286046999.9,N
1560321915.4,286047002.7,N
1560321935.2,286047001.0,N
1560321955.1,286047002.2,N
1560321956.0,286047002.2,N
1560321975.8,286047001.9,N
1560321995.7,286047001.8,N
1560322015.5,286047001.5,N
1560322035.3,286047002.1,N
1560322055.2,286047002.1,N
1560322075.0,286047002.4,N
1560322075.9,286047002.4,N
1560322095.7,286047004.3,N
1560322115.6,286047004.4,N
1560322135.4,286047001.8,N
1560322155.3,286047002.8,N
1560322175.1,286047002.2,N
1560322195.8,286047001.4,N
1560322215.3,286047001.7,N
1560322235.1,286047003.7,N
1560322255.8,286047003.4,N
1560322275.7,286047004.0,N
1560322295.5,286047004.3,N
1560322315.4,286047000.3,N
1560322335.2,286046998.3,N
1560322355.0,286046998.1,N
1560322355.9,286046998.1,N
1560322375.8,286047002.8,N
1560322395.6,286047002.5,N
1560322415.4,286047000.3,N
1560322435.3,286047000.6,N
1560322455.1,286046999.7,N
1560322475.9,286047001.9,N
1560322495.7,286047002.2,N
1560322515.1,286047002.1,N
1560322516.0,286047002.1,N
1560322535.8,286047002.2,N
1560322555.7,286047004.0,N
1560322575.5,286047003.8,N
1560322595.3,286047002.9,N
1560322615.2,286047005.8,Y
1560322635.0,286047004.3,P
1560322635.9,286047004.3,P
1560322655.8,286047001.3,N
1560322675.6,286047004.0,N
1560322695.4,286047003.9,Y
1560322715.3,286047001.1,P
1560322735.1,286047000.9,N
1560322755.9,286046998.2,N
1560322775.7,286047000.3,N
1560322795.5,286047000.6,N
